ATLAS CENTAUR R/B, 10722

Orbit data source: Space-Track

ATLAS CENTAUR R/B, 10722 is space debris in HEO originally from a launch on Sat, 07 Jan 1978 UTC launched from the Air Force Eastern Test Range (AFETR). Debris objects in space refer to the collection of defunct objects orbiting the Earth. Examples of debris include non-operational satellites, rocket bodies, and fragments generated from explosions, collisions, or faulty payload assembly.

Loading next visibility...
Identifier
10722, 1978-002B
Orbit
HEO
Country
Flag of USUS
Related business
Manufacturer
GD/Convair
Mission
Spacecraft
Bus & Motor
CENTAUR, Unknown motor
Mass
~1,800 kg wet, ~1,800 kg dry
Launch date (UTC)
1978-01-07 (48 years ago)
Launch vehicle
Unknown
Launch site
Air Force Eastern Test Range (AFETR)
Object type
Payload
Rocket body
Debris
Shape & HBR
Unknown
Radar Cross Section
Large (>1 m²)

Expand to show TLE details & history
Last TLE update: 1 day ago

TLE from 1 day ago
0 ATLAS CENTAUR R/B
1 10722U 78002B   26124.14236062 -.00000088  00000-0  59270-3 0  9991
2 10722  21.8901 354.9593 7164685 147.4739   5.1129  2.21864723283630
Epoch: 2026-05-04T03:24Z
TLE epoch observation values (Epoch: 2026-05-04T03:24:59.957Z)
Latitude
-3.04356°
Longitude
-90.76416°
Altitude
1,480.41 km
Speed
9.24 km/s
True Right ascension
12h 10m 05s
True Declination
-3° 01' 37"
Sunlit
Object was in full shadow at epoch
Visualization orbit readout
Latitude
Unknown
Longitude
Unknown
Altitude
Unknown
Speed
Unknown
Apparent Right ascension
Unknown
Apparent Declination
Unknown
Sunlit
N/A
Visualization observer readout
Local Sidereal Time
22:41:03
Azimuth
Unknown
Elevation
Unknown
Doppler factor
Unknown
Orbital elements
Apogee altitude
36,252.134 km
Perigee altitude
663.661 km
Semi-major axis
24,836.035 km
Eccentricity
0.71647
Inclination
21.8901°
RAAN
354.9593°
Arg. of periapsis
147.4739°
True anomaly
41.18438°
Mean anomaly
5.1129°
Eccentric anomaly
17.3643°
Mean motion
0.55452 °/min
Orbital period
649.21 mins
BSTAR
0.0005927
Loading maneuver chart data...
Computing Atmospheric mass density...
Loading historical data...
Loading historical data...
Loading historical data...
Loading historical data...
Loading historical data...
Loading historical data...
Loading historical data...
Other satellites on launch #2 in the year 1978 (1978-01-07 UTC)

Documentation

Showing up to 5 results
|